Regional Weather Roundup
Issued by NWS

Home | Current Version | Previous Version | Graphics & Text | Print | Product List | Glossary On
Versions: 1 2 3 4 5 6 7 8 9 10 11 12 13 14 15 16 17 18 19 20 21 22 23 24 25 26 27 28 29 30 31 32 33 34 35 36 37 38 39 40 41 42 43 44 45 46 47 48 49 50
000
ASUS43 KBIS 260631
RWRND
NORTH DAKOTA REGIONAL WEATHER ROUNDUP
NATIONAL WEATHER SERVICE EASTERN NORTH DAKOTA/GRAND FORKS ND
100 AM CDT MON JUN 26 2017

  NOTE: "FAIR" INDICATES FEW OR NO CLOUDS BELOW 12,000 FEET WITH NO
  SIGNIFICANT WEATHER AND/OR OBSTRUCTIONS TO VISIBILITY.

NDZ001>003-009>011-017-260700-
...NORTHWEST NORTH DAKOTA...

CITY           SKY/WX    TMP DP  RH WIND       PRES   REMARKS
WILLISTON      FAIR      50  43  77 CALM      30.24R
6HR MIN TEMP:  50; 6HR MAX TEMP:  75;

MINOT          MOCLDY    52  41  66 SW3       30.24S
MINOT AFB      FAIR      43  39  85 CALM      30.24R
6HR MIN TEMP:  43; 6HR MAX TEMP:  67;

$$

NDZ018>021-031>035-040>046-260700-
...SOUTHWEST NORTH DAKOTA...

CITY           SKY/WX    TMP DP  RH WIND       PRES   REMARKS
BISMARCK       FAIR      50  44  80 CALM      30.26R
DICKINSON      FAIR      48  38  68 E7        30.23S
GARRISON         N/A     50  40  68 CALM      30.25R
HETTINGER      FAIR      47  38  71 E6        30.25S
$$

NDZ004>008-012>016-024-026-027-054-260700-
...NORTHEAST NORTH DAKOTA...

CITY           SKY/WX    TMP DP  RH WIND       PRES   REMARKS
GRAND FORKS    FAIR      46  43  89 W6        30.21R
GRAND FORKS AF FAIR      42  41  94 NW3       30.21S
DEVILS LAKE    FAIR      49  41  74 CALM      30.25R
$$

NDZ022-023-025-028>030-036>039-047>053-260700-
...SOUTHEAST NORTH DAKOTA...

CITY           SKY/WX    TMP DP  RH WIND       PRES   REMARKS
JAMESTOWN      FAIR      47  40  76 CALM      30.23S
FARGO          FAIR      47  39  74 CALM      30.20S
WAHPETON       FAIR      46  39  76 N5        30.21R
$$




USA.gov is the U.S. government's official web portal to all federal, state and local government web resources and services.